Home   Weather   Gaspé   Past weeks
Flag for Canada

Past Weather in Gaspé, Quebec, Canada — Yesterday and Last 2 Weeks

Now
57 °F

More clouds than sun.


Feels Like: 55 °F
Forecast: N/A
Wind: 8 mph from East

Location: Gaspe

Current Time: Jun 20, 2019 at 6:02:20 pm

Latest Report: Jun 20, 2019 at 5:00 pm


Visibility: 8 mi

Pressure: 29.71 "Hg

Humidity: 94%

Dew Point: 55 °F

Location of GaspéLocation

Past Weather in Gaspé — Graph

°F

Gaspé Temperature Yesterday

Maximum temperature yesterday: 70 °F (at 1:00 pm)
Minimum temperature yesterday: 43 °F (at 3:00 am)
Average temperature yesterday: 59 °F

High & Low Weather Summary for the Past Weeks

 TemperatureHumidityPressure
High81 °F (Jun 11, 2:00 pm)100% (Jun 5, 10:00 pm)30.34 "Hg (Jun 5, 10:00 pm)
Low34 °F (Jun 6, 2:00 am)21% (Jun 12, 3:00 pm)29.62 "Hg (Jun 12, 1:00 am)
Average55 °F71%29.89 "Hg
* Reported Jun 5 4:00 pm — Jun 20 4:00 pm, Gaspé. Weather by CustomWeather, © 2019

Note: Actual official high and low records may vary slightly from our data, if they occured in-between our weather recording intervals... More about our weather records

Advertising

Gaspé Weather History for the Previous 24 Hours

Scroll right to see more
 ConditionsComfort  
Time TempWeatherWind HumidityBarometerVisibility
4:00 pm
Thu, Jun 20
59 °FMore clouds than sun.9 mph94%29.72 "Hg8 mi
3:25 pm59 °FPartly sunny.8 mph94%29.72 "Hg8 mi
3:00 pm57 °FSprinkles. Fog.9 mph94%29.72 "Hg4 mi
2:30 pm59 °FRain showers. Overcast.10 mph88%29.73 "Hg3 mi
2:08 pm61 °FSprinkles. Partly sunny.9 mph83%29.72 "Hg4 mi
1:00 pm63 °FPartly sunny.8 mph77%29.73 "Hg15 mi
12:24 pm63 °FPartly sunny.10 mph77%29.73 "Hg15 mi
11:00 am64 °FScattered clouds.3 mph78%29.74 "Hg15 mi
10:00 am61 °FPartly sunny.2 mph83%29.76 "Hg15 mi
9:00 am59 °FBroken clouds.2 mph88%29.77 "Hg15 mi
8:00 am55 °FOvercast.2 mph94%29.78 "Hg15 mi
7:00 am55 °FLight rain. Overcast.2 mph94%29.78 "Hg15 mi
6:00 am55 °FOvercast.No wind94%29.77 "Hg15 mi
5:50 am54 °FLight rain. Mostly cloudy.3 mph100%29.77 "Hg15 mi
5:00 am54 °FOvercast.5 mph94%29.76 "Hg15 mi
4:02 am54 °FOvercast.No wind94%29.76 "Hg15 mi
3:00 am54 °FLight rain. Overcast.3 mph94%29.78 "Hg15 mi
2:00 am54 °FLight rain. Mostly cloudy.3 mph100%29.80 "Hg15 mi
1:00 am55 °FOvercast.3 mph94%29.80 "Hg15 mi
12:58 am55 °FLight rain. Overcast.3 mph94%29.80 "Hg15 mi
12:00 am55 °FOvercast.2 mph94%29.79 "Hg15 mi
11:00 pm
Wed, Jun 19
55 °FOvercast.No wind94%29.80 "Hg15 mi
10:00 pm55 °FOvercast.No wind88%29.81 "Hg15 mi
9:00 pm57 °FLight rain. Overcast.3 mph82%29.82 "Hg15 mi
8:00 pm61 °FPartly sunny.6 mph55%29.80 "Hg15 mi
7:00 pm64 °FPartly sunny.9 mph49%29.79 "Hg15 mi
6:00 pm66 °FPartly sunny.8 mph46%29.80 "Hg15 mi
Weather by CustomWeather, © 2019

See weather overview